Regional Weather Roundup
Issued by NWS

Home | Current Version | Previous Version | Text Only | Print | Product List | Glossary On
Versions: 1 2 3 4 5 6 7 8 9 10 11 12 13 14 15 16 17 18 19 20 21 22 23 24 25 26 27 28 29 30 31 32 33 34 35 36 37 38 39 40 41 42 43 44 45 46 47 48 49 50
000
ASUS43 KBIS 070510
RWRND

NORTH DAKOTA REGIONAL WEATHER ROUNDUP
NATIONAL WEATHER SERVICE BISMARCK ND
1100 PM CST SAT FEB 06 2016

NOTE: "FAIR" INDICATES FEW OR NO CLOUDS BELOW 12,000 FEET WITH NO
SIGNIFICANT WEATHER AND/OR OBSTRUCTIONS TO VISIBILITY.


NDZ001>003-009>011-017-070600-
NORTHWEST NORTH DAKOTA

CITY           SKY/WX    TMP DP  RH WIND       PRES   REMARKS
WILLISTON      CLEAR     36  26  67 W18       29.81R
MINOT          LGT RAIN  40  23  50 W31G47    29.63R
MINOT AFB      CLOUDY    37  27  66 NW32G40   29.61R
$$

NDZ018>021-031>035-040>046-070600-
SOUTHWEST NORTH DAKOTA

CITY           SKY/WX    TMP DP  RH WIND       PRES   REMARKS
BISMARCK       CLEAR     43  25  49 W22G35    29.76R
DICKINSON      CLEAR     34  22  61 W24G32    29.82R
GARRISON         N/A     37  21  52 NW33G44   29.69S
HETTINGER ARPT CLEAR     35  21  56 W23G32    29.90R
$$

NDZ004>008-012>016-024-026-027-054-070600-
NORTHEAST NORTH DAKOTA

CITY           SKY/WX    TMP DP  RH WIND       PRES   REMARKS
GRAND FORKS    CLOUDY    40  31  70 W16       29.46F
GRND FRKS AFB  CLOUDY    40  32  72 W17G24    29.47F
DEVILS LAKE    RAIN      34  32  92 W28G36    29.51R
$$

NDZ022-023-025-028>030-036>039-047>053-070600-
SOUTHEAST NORTH DAKOTA

CITY           SKY/WX    TMP DP  RH WIND       PRES   REMARKS
FARGO          CLOUDY    39  31  72 SW18      29.56F
JAMESTOWN      CLOUDY    37  32  82 W22G35    29.60S
$$




USA.gov is the U.S. government's official web portal to all federal, state and local government web resources and services.